WJA577 CYHZ-CYEG

Flight info

Callsign WJA577
Flight time N/A
Altitude 36000
Route KELNO DCT EMLOB DCT PQI DCT YUC DCT VETRO DCT 52N090W 53N100W DCT YPA DCT REFEX DCT CAMRA IGSOX3
Aircraft B737/M-SDE2E3FGHIRWXY/LB1

Departure

Time 2026-05-05 00:03
Airport Halifax / Stanfield International Airport (CYHZ)

Arrival

Time N/A
Airport Edmonton International Airport (CYEG)
Time Latitude Longitude Altitude Speed Heading
2026-05-04 23:39 44.88612 -63.51367 451 ft 0 kts 303°
2026-05-04 23:45 44.88613 -63.51368 451 ft 1 kts 306°
2026-05-04 23:45 44.88623 -63.51367 451 ft 3 kts 11°
2026-05-04 23:46 44.88640 -63.51353 451 ft 3 kts 36°
2026-05-04 23:46 44.88656 -63.51335 451 ft 3 kts 38°
2026-05-04 23:46 44.88672 -63.51318 451 ft 3 kts 36°
2026-05-04 23:46 44.88689 -63.51302 451 ft 3 kts 31°
2026-05-04 23:47 44.88707 -63.51289 451 ft 3 kts 25°
2026-05-04 23:47 44.88726 -63.51280 451 ft 3 kts 15°
2026-05-04 23:47 44.88745 -63.51277 451 ft 2 kts 360°
2026-05-04 23:47 44.88764 -63.51282 451 ft 1 kts 170°
2026-05-04 23:51 44.88757 -63.51279 451 ft 3 kts 167°
2026-05-04 23:51 44.88722 -63.51268 451 ft 7 kts 167°
2026-05-04 23:51 44.88693 -63.51215 451 ft 8 kts 90°
2026-05-04 23:52 44.88707 -63.51145 451 ft 7 kts 69°
2026-05-04 23:52 44.88715 -63.51075 451 ft 7 kts 82°
2026-05-04 23:52 44.88721 -63.51006 451 ft 7 kts 83°
2026-05-04 23:52 44.88729 -63.50940 451 ft 7 kts 67°
2026-05-04 23:53 44.88761 -63.50892 449 ft 7 kts 39°
2026-05-04 23:53 44.88799 -63.50854 450 ft 7 kts 36°
2026-05-04 23:53 44.88840 -63.50811 449 ft 8 kts 36°
2026-05-04 23:53 44.88886 -63.50765 449 ft 7 kts 36°
2026-05-04 23:54 44.88926 -63.50725 449 ft 7 kts 36°
2026-05-04 23:54 44.88961 -63.50689 448 ft 0 kts 36°
2026-05-04 23:55 44.88980 -63.50670 450 ft 2 kts 34°
2026-05-04 23:56 44.88989 -63.50661 448 ft 2 kts 36°
2026-05-04 23:56 44.88993 -63.50657 449 ft 0 kts 40°
2026-05-04 23:56 44.88996 -63.50652 450 ft 3 kts 49°
2026-05-04 23:56 44.89005 -63.50606 450 ft 6 kts 89°
2026-05-04 23:57 44.89003 -63.50595 450 ft 0 kts 101°
2026-05-05 00:01 44.89001 -63.50587 450 ft 3 kts 108°
2026-05-05 00:01 44.88983 -63.50542 448 ft 8 kts 121°
2026-05-05 00:02 44.88944 -63.50458 450 ft 12 kts 123°
2026-05-05 00:02 44.88906 -63.50425 450 ft 6 kts 191°
2026-05-05 00:02 44.88861 -63.50460 448 ft 16 kts 214°
2026-05-05 00:02 44.88519 -63.50796 451 ft 100 kts 214°
2026-05-05 00:03 44.87758 -63.51562 519 ft 162 kts 218°
2026-05-05 00:03 44.86730 -63.52539 1078 ft 190 kts 218°
2026-05-05 00:03 44.85635 -63.53671 1946 ft 195 kts 224°
2026-05-05 00:03 44.84644 -63.54912 2884 ft 196 kts 231°
2026-05-05 00:04 44.83679 -63.56312 3502 ft 201 kts 234°
2026-05-05 00:04 44.82721 -63.57788 3936 ft 211 kts 234°
2026-05-05 00:04 44.81766 -63.59462 4308 ft 221 kts 247°
2026-05-05 00:04 44.81368 -63.61513 5041 ft 218 kts 268°
2026-05-05 00:05 44.81409 -63.63657 5803 ft 220 kts 273°
2026-05-05 00:05 44.81513 -63.65820 6593 ft 222 kts 273°
2026-05-05 00:05 44.81625 -63.67997 7380 ft 224 kts 274°
2026-05-05 00:05 44.81742 -63.70198 8173 ft 227 kts 273°
2026-05-05 00:06 44.81867 -63.72438 8954 ft 231 kts 275°
2026-05-05 00:06 44.82333 -63.74628 9746 ft 240 kts 295°
2026-05-05 00:06 44.83290 -63.76597 10419 ft 250 kts 299°
2026-05-05 00:06 44.84324 -63.78670 10594 ft 274 kts 299°
2026-05-05 00:07 44.85459 -63.80957 10872 ft 293 kts 300°
2026-05-05 00:07 44.86649 -63.83344 11502 ft 300 kts 300°
2026-05-05 00:07 44.87858 -63.85761 12283 ft 302 kts 300°
2026-05-05 00:07 44.89077 -63.88197 13094 ft 305 kts 300°
2026-05-05 00:08 44.90305 -63.90656 13876 ft 308 kts 300°
2026-05-05 00:08 44.91543 -63.93136 14647 ft 310 kts 300°
2026-05-05 00:08 44.92787 -63.95630 15456 ft 311 kts 300°
2026-05-05 00:08 44.94034 -63.98134 16265 ft 313 kts 299°
2026-05-05 00:09 44.95288 -64.00656 17067 ft 315 kts 299°
2026-05-05 00:09 44.96546 -64.03189 17852 ft 317 kts 299°
2026-05-05 00:09 44.97815 -64.05748 18530 ft 319 kts 299°
2026-05-05 00:09 44.99089 -64.08320 19191 ft 321 kts 299°
2026-05-05 00:10 45.00371 -64.10908 19852 ft 323 kts 300°
2026-05-05 00:10 45.01662 -64.13518 20501 ft 325 kts 300°
2026-05-05 00:10 45.02958 -64.16139 21156 ft 327 kts 300°
2026-05-05 00:10 45.04266 -64.18789 21786 ft 329 kts 300°
2026-05-05 00:11 45.05580 -64.21452 22432 ft 331 kts 300°
2026-05-05 00:11 45.06901 -64.24131 23058 ft 333 kts 301°
2026-05-05 00:11 45.08213 -64.26796 23612 ft 335 kts 301°
2026-05-05 00:11 45.09554 -64.29522 24087 ft 339 kts 301°
2026-05-05 00:12 45.10905 -64.32273 24504 ft 343 kts 301°
2026-05-05 00:12 45.12276 -64.35066 24935 ft 346 kts 301°
2026-05-05 00:12 45.13655 -64.37877 25370 ft 349 kts 301°
2026-05-05 00:12 45.15047 -64.40719 25791 ft 353 kts 301°
2026-05-05 00:13 45.16453 -64.43591 26206 ft 356 kts 301°
2026-05-05 00:13 45.17871 -64.46490 26612 ft 359 kts 301°
2026-05-05 00:13 45.19301 -64.49416 27004 ft 362 kts 301°
2026-05-05 00:13 45.20721 -64.52325 27400 ft 365 kts 301°
2026-05-05 00:14 45.22175 -64.55307 27790 ft 368 kts 301°
2026-05-05 00:14 45.23636 -64.58308 28146 ft 372 kts 301°
2026-05-05 00:14 45.25112 -64.61341 28510 ft 375 kts 301°
2026-05-05 00:14 45.26596 -64.64395 28870 ft 377 kts 302°
2026-05-05 00:15 45.28091 -64.67473 29209 ft 380 kts 302°
2026-05-05 00:15 45.29596 -64.70577 29590 ft 381 kts 302°
2026-05-05 00:15 45.31099 -64.73677 30078 ft 380 kts 302°
2026-05-05 00:15 45.32597 -64.76772 30414 ft 381 kts 301°
2026-05-05 00:16 45.34103 -64.79889 30657 ft 384 kts 301°
2026-05-05 00:16 45.35618 -64.83027 30949 ft 385 kts 301°
2026-05-05 00:16 45.37115 -64.86130 31293 ft 385 kts 301°
2026-05-05 00:16 45.38632 -64.89280 31585 ft 387 kts 301°
2026-05-05 00:17 45.40155 -64.92445 31845 ft 389 kts 301°
2026-05-05 00:17 45.41693 -64.95644 32167 ft 390 kts 301°
2026-05-05 00:17 45.43222 -64.98828 32462 ft 390 kts 301°
2026-05-05 00:17 45.44757 -65.02029 32723 ft 392 kts 301°